[[{"header":{"parameterUnit":"m.s-1","parameterCategory":1,"la1":30.2991,"la2":30.254,"lo1":-89.0895,"lo2":-89.0444,"dy":0.0017,"dx":0.0017,"nx":28,"ny":28,"refTime":"2024-02-23T09:00:00:Z","depth":0,"parameterNumber":2,"parameterNumberName":"U-component_of_WINDS"},"data":[0,0,0,0,0,0,0,0,0,0,0,0,0,0,0,0,0,0,0,0,0,0,0,0,0,0,0,0,0,0,0,0,0,0,0,0,0,0,0,0,0,0,0,0,0,0,0,0,0,0,0,0,0,0,0,0,0,0,2.1102,2.1103,0,2.1149,2.1149,2.115,2.1135,2.1134,2.1133,2.1132,2.1181,2.1183,2.1185,0,0,0,0,0,0,0,0,0,0,0,0,0,2.1001,2.1003,2.1102,2.1103,2.1103,2.1149,2.1149,2.115,2.1135,2.1134,2.1133,2.1131,2.118,2.1183,2.1186,0,0,0,0,0,0,0,0,0,0,0,0,0,2.1046,2.1004,2.1102,2.1101,2.1101,2.1149,2.115,2.115,2.1135,2.1134,2.1132,2.1131,2.1179,2.1183,2.1186,2.1237,0,0,2.1196,2.1198,0,0,0,0,0,0,0,0,2.1044,2.105,2.1101,2.1101,2.1102,2.1134,2.1132,2.1179,2.1136,2.1122,2.1132,2.113,2.1167,2.1171,2.1183,2.1239,2.1242,2.1197,2.1199,2.12,2.1201,0,0,0,0,0,0,0,2.1041,2.1048,2.1121,2.1101,2.1102,2.1099,2.1104,2.1141,2.1153,2.1123,2.1122,2.1128,2.1167,2.118,2.1184,2.1242,2.1197,2.12,2.1202,2.1203,2.1345,2.1346,0,0,0,0,0,0,2.1037,2.1046,2.1119,2.1122,2.1068,2.1102,2.1107,2.1126,2.1152,2.1155,2.1129,2.1127,2.1175,2.118,2.1186,2.1249,2.12,2.1203,2.1205,2.1343,2.1345,2.1347,0,0,0,0,0,0,2.1035,2.1044,2.1117,2.1084,2.1093,2.1105,2.1126,2.1127,2.114,2.1157,2.1159,2.1141,2.1174,2.1181,2.1225,2.125,2.1205,2.1208,2.1341,2.1343,2.1346,2.1374,0,0,0,0,0,0,2.1032,2.1043,2.1062,2.1084,2.1095,2.1155,2.1127,2.1129,2.1146,2.1144,2.1168,2.117,2.1173,2.122,2.1228,2.1254,2.121,2.1339,2.1342,2.1345,2.137,2.1377,2.1382,0,0,0,0,0,2.1029,2.1068,2.1063,2.1072,2.1118,2.1156,2.1162,2.1165,2.1148,2.1168,2.1179,2.117,2.1246,2.1224,2.1234,2.1261,2.1337,2.1341,2.1345,2.1368,2.1376,2.1382,0,0,0,0,0,0,2.1049,2.1071,2.1066,2.1113,2.1133,2.1153,2.1178,2.1173,2.1198,2.1194,2.1197,2.1202,2.1247,2.1258,2.1234,2.1313,2.1289,2.1295,2.1304,2.1311,2.1317,2.1313,2.1213,0,0,0,0,0,2.1059,2.1087,2.1105,2.1145,2.1155,2.1165,2.1182,2.1182,2.1203,2.1211,2.1225,2.1246,2.1275,2.1293,2.1321,2.1372,2.1378,2.1396,2.1401,2.1406,2.1411,2.1441,2.1449,2.136,2.136,2.136,0,0,2.1079,2.1095,2.1113,2.115,2.1165,2.1195,2.1172,2.1204,2.1227,2.1216,2.1258,2.1269,2.1293,2.1341,2.1363,2.1351,2.1437,2.1411,2.1415,2.1417,2.1446,2.1454,2.1461,2.1362,2.1362,2.1361,0,0,2.1133,2.1147,2.1183,2.1199,2.1222,2.1229,2.1237,2.1259,2.1266,2.1308,2.1301,2.1328,2.1378,2.1395,2.141,2.1472,2.1465,2.1481,2.1512,2.154,2.1547,2.1554,2.1576,2.1584,2.1486,2.1486,2.1486,0,2.1156,2.12,2.1202,2.1235,2.1252,2.1243,2.128,2.1296,2.1327,2.134,2.1326,2.1389,2.1404,2.1457,2.1472,2.1485,2.1495,2.1478,2.1546,2.1552,2.1558,2.158,2.1589,2.1488,2.1488,2.1488,2.1487,0,2.1227,2.1258,2.1284,2.1315,2.1335,2.137,2.1378,2.1398,2.1397,2.1405,2.1449,2.1467,2.1499,2.1511,2.1511,2.1565,2.1557,2.1545,2.1522,2.1569,2.1589,2.1597,2.1491,2.149,2.1489,2.1489,0,0,2.1294,2.1326,2.1335,2.135,2.1376,2.14,2.1435,2.1466,2.1484,2.1506,2.1536,2.1579,2.1568,2.1586,2.1587,2.1612,2.1661,2.1597,2.1598,2.1609,2.1723,2.1732,2.1741,2.1657,2.1658,2.166,2.1721,0,2.135,2.1411,2.1414,2.147,2.1499,2.1492,2.1523,2.1543,2.1552,2.1579,2.1589,2.162,2.1603,2.1614,2.1638,2.165,2.1684,2.1646,2.1686,2.1687,2.168,2.1752,2.1761,2.1818,2.1729,2.1731,2.1731,0,2.1423,2.1448,2.1506,2.1529,2.1542,2.1569,2.1598,2.1624,2.1647,2.1652,2.1672,2.167,2.1707,2.1683,2.1735,2.1708,2.1725,2.1734,2.1736,2.174,2.1712,2.1758,2.1837,2.1845,2.1744,2.1743,2.1742,0,2.1466,2.1514,2.1556,2.1568,2.1596,2.1616,2.1628,2.165,2.1668,2.1694,2.1706,2.1736,2.1753,2.1776,2.1783,2.1764,2.1835,2.1811,2.1841,2.1841,2.1856,2.1855,2.1939,2.1867,2.1867,2.1866,2.1866,0,2.1528,2.1565,2.1576,2.1601,2.1643,2.1647,2.1687,2.1699,2.1718,2.1747,2.1743,2.177,2.1777,2.1806,2.1811,2.1854,2.1861,2.1867,2.1868,2.1868,2.1867,2.1879,2.1875,2.1869,2.1868,2.1868,2.1867,0,2.1584,2.1592,2.1637,2.166,2.1667,2.1696,2.1716,2.1741,2.175,2.1787,2.1795,2.181,2.1843,2.1852,2.1893,2.1897,2.1947,2.1944,2.1939,2.1939,2.1969,2.1967,2.2063,2.2077,2.1996,2.1996,2.1997,0,2.1623,2.1651,2.1677,2.1695,2.1709,2.1739,2.1758,2.1764,2.1784,2.1813,2.1835,2.1868,2.1895,2.1949,2.1964,2.1995,2.1993,2.2025,2.1998,2.1997,2.1995,2.1993,2.1996,2.203,2.2031,2.2032,2.2032,0,2.1692,2.1695,2.1722,2.1752,2.1775,2.1798,2.1821,2.1837,2.1846,2.1869,2.1903,2.1924,2.1966,2.1999,2.2031,2.2045,2.2041,2.2041,2.205,2.2049,2.2045,2.2049,2.1954,2.2039,2.2038,2.2037,2.2037,2.2037,2.174,2.1765,2.1788,2.1819,2.1837,2.1858,2.1883,2.1896,2.1924,2.1958,2.196,2.1998,2.2021,2.2064,2.2079,2.211,2.21,2.2113,2.2116,2.2119,2.2122,2.2041,2.2115,2.2115,2.2115,2.2115,2.2115,0,2.181,2.1824,2.1852,2.1884,2.1909,2.1903,2.1928,2.195,2.1982,2.2005,2.2031,2.2072,2.2104,2.2122,2.2155,2.2176,2.2175,2.2184,2.2183,2.2186,2.2128,2.2117,2.2184,2.2184,2.2184,2.2184,2.2184,2.2184,2.1848,2.1891,2.1897,2.1948,2.1962,2.1999,2.2014,2.2034,2.2052,2.2097,2.2124,2.2135,2.2156,2.2191,2.2221,2.2225,2.2238,2.2249,2.2252,2.2197,2.219,2.2183,2.2174,2.2251,2.2251,2.2308,2.2308,2.2309]},{"header":{"parameterUnit":"m.s-1","parameterCategory":1,"la1":30.2991,"la2":30.254,"lo1":-89.0895,"lo2":-89.0444,"dy":0.0017,"dx":0.0017,"nx":28,"ny":28,"refTime":"2024-02-23T09:00:00:Z","depth":0,"parameterNumber":3,"parameterNumberName":"V-component_of_WINDS"},"data":[0,0,0,0,0,0,0,0,0,0,0,0,0,0,0,0,0,0,0,0,0,0,0,0,0,0,0,0,0,0,0,0,0,0,0,0,0,0,0,0,0,0,0,0,0,0,0,0,0,0,0,0,0,0,0,0,0,0,-2.4539,-2.454,0,-2.4688,-2.469,-2.4691,-2.4733,-2.4732,-2.4731,-2.473,-2.4887,-2.4892,-2.4897,0,0,0,0,0,0,0,0,0,0,0,0,0,-2.4294,-2.4298,-2.4539,-2.4541,-2.4542,-2.4688,-2.469,-2.4692,-2.4733,-2.4732,-2.4731,-2.473,-2.4885,-2.4891,-2.4897,0,0,0,0,0,0,0,0,0,0,0,0,0,-2.4418,-2.43,-2.4538,-2.458,-2.4586,-2.4687,-2.469,-2.4692,-2.4733,-2.4732,-2.473,-2.4729,-2.4883,-2.489,-2.4898,-2.497,0,0,-2.4921,-2.4924,0,0,0,0,0,0,0,0,-2.4411,-2.4427,-2.4572,-2.4578,-2.4584,-2.469,-2.4661,-2.4785,-2.4733,-2.4677,-2.473,-2.4729,-2.4823,-2.4835,-2.4866,-2.4977,-2.4984,-2.4921,-2.4926,-2.4929,-2.4931,0,0,0,0,0,0,0,-2.4402,-2.442,-2.4598,-2.4574,-2.4581,-2.4593,-2.4609,-2.4685,-2.4756,-2.4682,-2.4685,-2.4702,-2.4826,-2.4859,-2.487,-2.4986,-2.4921,-2.4928,-2.4932,-2.4935,-2.5165,-2.5167,0,0,0,0,0,0,-2.4386,-2.4413,-2.4593,-2.4602,-2.4492,-2.4599,-2.4617,-2.4657,-2.4755,-2.4768,-2.4703,-2.4704,-2.4847,-2.4861,-2.4876,-2.4967,-2.4929,-2.4936,-2.494,-2.5163,-2.5165,-2.5167,0,0,0,0,0,0,-2.438,-2.4401,-2.4587,-2.4509,-2.4533,-2.4604,-2.465,-2.4661,-2.4694,-2.4771,-2.4784,-2.4724,-2.4846,-2.4865,-2.4946,-2.4973,-2.4939,-2.4946,-2.5162,-2.5164,-2.5166,-2.5149,0,0,0,0,0,0,-2.4373,-2.4399,-2.4426,-2.4509,-2.4537,-2.4653,-2.4651,-2.4665,-2.4706,-2.4708,-2.4793,-2.4806,-2.4847,-2.4935,-2.4953,-2.4983,-2.4952,-2.5159,-2.5163,-2.5166,-2.5148,-2.5151,-2.5153,0,0,0,0,0,-2.4364,-2.4416,-2.4427,-2.4448,-2.4572,-2.4655,-2.4671,-2.4715,-2.4708,-2.4737,-2.4786,-2.4804,-2.4967,-2.4943,-2.4964,-2.4996,-2.5158,-2.5162,-2.5165,-2.5146,-2.515,-2.5153,0,0,0,0,0,0,-2.4335,-2.4427,-2.4441,-2.452,-2.4579,-2.4662,-2.4699,-2.4718,-2.4781,-2.478,-2.4834,-2.4853,-2.493,-2.4971,-2.4942,-2.5071,-2.5063,-2.5071,-2.5041,-2.5046,-2.5048,-2.5037,-2.4958,0,0,0,0,0,-2.4338,-2.4396,-2.4474,-2.4537,-2.4566,-2.4627,-2.4665,-2.4694,-2.4757,-2.4783,-2.4838,-2.4901,-2.4966,-2.5008,-2.5073,-2.5154,-2.5174,-2.5187,-2.519,-2.5192,-2.5198,-2.5246,-2.5252,-2.5179,-2.5179,-2.5179,0,0,-2.4344,-2.4402,-2.4435,-2.4532,-2.4581,-2.4642,-2.4648,-2.4711,-2.4757,-2.4793,-2.4872,-2.4915,-2.4989,-2.507,-2.5109,-2.5107,-2.5223,-2.5196,-2.5197,-2.5203,-2.525,-2.5257,-2.5263,-2.5182,-2.5181,-2.5181,0,0,-2.4387,-2.4436,-2.4494,-2.4543,-2.4617,-2.4657,-2.4671,-2.4751,-2.478,-2.4861,-2.4889,-2.4946,-2.5057,-2.5108,-2.5149,-2.5213,-2.5232,-2.5232,-2.5247,-2.5293,-2.5299,-2.5304,-2.5328,-2.5335,-2.5238,-2.5238,-2.5238,0,-2.4386,-2.4476,-2.4521,-2.4584,-2.4626,-2.4661,-2.4721,-2.4767,-2.4858,-2.4888,-2.4884,-2.5025,-2.5077,-2.5172,-2.5187,-2.5219,-2.5238,-2.5223,-2.5294,-2.53,-2.5306,-2.5329,-2.5337,-2.5238,-2.5238,-2.5238,-2.5238,0,-2.4472,-2.4535,-2.4573,-2.466,-2.4707,-2.4768,-2.4823,-2.4866,-2.4891,-2.4933,-2.5015,-2.5079,-2.5157,-2.5182,-2.5207,-2.5281,-2.5277,-2.5283,-2.5276,-2.5311,-2.5334,-2.5343,-2.5238,-2.5238,-2.5238,-2.5238,0,0,-2.45,-2.4611,-2.4624,-2.4664,-2.4749,-2.4799,-2.4862,-2.4938,-2.4974,-2.5037,-2.5092,-2.5186,-2.5192,-2.5238,-2.527,-2.531,-2.5358,-2.5312,-2.5314,-2.5319,-2.5444,-2.5439,-2.5448,-2.5371,-2.5373,-2.5374,-2.5438,0,-2.4553,-2.4666,-2.4709,-2.4802,-2.4861,-2.4895,-2.4951,-2.501,-2.5051,-2.5108,-2.5154,-2.522,-2.5223,-2.5251,-2.5292,-2.5343,-2.5384,-2.5339,-2.5425,-2.5427,-2.5405,-2.546,-2.5455,-2.5512,-2.5447,-2.5449,-2.545,0,-2.4631,-2.4693,-2.4791,-2.4869,-2.4896,-2.4944,-2.5018,-2.5072,-2.514,-2.5168,-2.522,-2.5249,-2.5319,-2.5307,-2.5405,-2.5374,-2.5411,-2.5442,-2.5445,-2.5455,-2.544,-2.5472,-2.5531,-2.554,-2.5464,-2.5463,-2.5462,0,-2.4642,-2.475,-2.4823,-2.4856,-2.4949,-2.4983,-2.5024,-2.509,-2.5134,-2.5198,-2.5227,-2.53,-2.534,-2.5396,-2.5445,-2.5432,-2.5539,-2.5531,-2.5565,-2.5563,-2.5585,-2.5583,-2.5652,-2.5609,-2.5609,-2.5609,-2.5609,0,-2.4697,-2.4756,-2.4829,-2.4874,-2.4942,-2.4992,-2.5058,-2.5101,-2.5161,-2.5216,-2.5251,-2.5302,-2.5364,-2.5424,-2.5463,-2.5539,-2.5557,-2.5582,-2.5591,-2.5579,-2.5576,-2.5604,-2.5602,-2.5611,-2.5611,-2.561,-2.561,0,-2.472,-2.4772,-2.4854,-2.4935,-2.4957,-2.5003,-2.5074,-2.512,-2.5162,-2.5232,-2.5252,-2.5319,-2.5392,-2.5446,-2.5541,-2.5568,-2.5648,-2.5658,-2.5625,-2.563,-2.566,-2.5657,-2.575,-2.5766,-2.5711,-2.5712,-2.5712,0,-2.4752,-2.4798,-2.4884,-2.4923,-2.4963,-2.5025,-2.5069,-2.5121,-2.5166,-2.5247,-2.5284,-2.5359,-2.5421,-2.5536,-2.5595,-2.5668,-2.568,-2.5708,-2.5692,-2.5678,-2.5682,-2.5678,-2.5684,-2.571,-2.5711,-2.5711,-2.5711,0,-2.4804,-2.4827,-2.4888,-2.4959,-2.501,-2.5068,-2.5128,-2.5158,-2.5221,-2.5269,-2.5343,-2.5392,-2.5488,-2.5563,-2.5642,-2.5686,-2.571,-2.5716,-2.5728,-2.5715,-2.5694,-2.5707,-2.5631,-2.5713,-2.5713,-2.5713,-2.5713,-2.5713,-2.4833,-2.4876,-2.4943,-2.5011,-2.506,-2.5115,-2.5162,-2.5211,-2.5273,-2.5354,-2.5382,-2.5458,-2.5528,-2.5636,-2.5681,-2.5743,-2.5743,-2.576,-2.5765,-2.5768,-2.5767,-2.5684,-2.5758,-2.5758,-2.5758,-2.5758,-2.5758,0,-2.4887,-2.4932,-2.4993,-2.5074,-2.5128,-2.5144,-2.5211,-2.5255,-2.5322,-2.5384,-2.5444,-2.553,-2.5603,-2.5668,-2.5744,-2.5781,-2.5794,-2.58,-2.5798,-2.5808,-2.5762,-2.5745,-2.5788,-2.5788,-2.5788,-2.5788,-2.5788,-2.5788,-2.4921,-2.4994,-2.5026,-2.5125,-2.5171,-2.5245,-2.5282,-2.5333,-2.5383,-2.5477,-2.5537,-2.5578,-2.5642,-2.5723,-2.5791,-2.5809,-2.5835,-2.5838,-2.5858,-2.5815,-2.5811,-2.5807,-2.5791,-2.5843,-2.5843,-2.5899,-2.5899,-2.59]}]]